South Labrador Sea: Past 24 Hour Conditions

 

Wreckhouse

07:30 AM NDT 30 August 2014
This table is a summary of hourly weather conditions for the past 24 hours.
Date / Time
(NDT)
Wind(knots) Conditions Visibility(km) Pressure(kPa) Air tempC) Relative humidity(%) Dew pointC)
30 August 2014
7:30 NE 1 N/A N/A 102.3 10 85 8
6:30 NNE 3 N/A N/A 102.3 11 90 9
5:30 NE 5 N/A N/A 102.3 11 83 8
4:30 NNE 4 N/A N/A 102.2 10 90 8
3:30 E 3 N/A N/A 102.2 9 88 7
2:30 NE 5 N/A N/A 102.2 10 81 7
1:30 NE 6 N/A N/A 102.2 9 84 6
0:30 NNE 7 N/A N/A 102.1 8 80 5
29 August 2014
23:30 N 10 N/A N/A 102.1 8 81 4
22:30 NNE 8 N/A N/A 102.0 8 83 5
21:30 NNE 9 N/A N/A 101.9 9 82 6
20:30 NNE 10 N/A N/A 101.8 10 80 7
19:30 NNW 15 gust 20 N/A N/A 101.8 13 76 8
18:30 NNW 18 N/A N/A 101.6 14 66 8
17:30 NNW 15 gust 21 N/A N/A 101.5 14 64 8
16:30 NW 17 gust 22 N/A N/A 101.5 14 65 8
15:30 NNW 12 gust 19 N/A N/A 101.4 15 64 8
14:30 NNW 14 gust 22 N/A N/A 101.3 16 62 8
13:30 N 15 N/A N/A 101.3 15 59 7
12:30 NNE 13 gust 20 N/A N/A 101.3 14 66 8
11:30 NNE 16 gust 22 N/A N/A 101.2 13 72 8
10:30 NNE 11 gust 16 N/A N/A 101.2 11 81 8
9:30 NNE 15 gust 25 N/A N/A 101.0 10 87 8
8:30 NNE 14 gust 20 N/A N/A 100.9 10 87 8
7:30 NNE 16 gust 23 N/A N/A 100.8 9 88 8
 
Map of Atlantic - Newfoundland marine weather areas Southwestern Grand Banks - 44138 Banquereau - 44139 Tail of the Bank - 44140 Nickerson Bank - 44251 Northeast Burgeo Bank - 44255 Blanc-Sablon Airport Cap Whittle Chevery Natashquan Airport Heath Point Miscou Island Grand Étang Ingonish Beach North Mountain St.Paul Island J.A. Douglas McCurdy Sydney Airport Charlottetown Airport East Point North Cape Argentia Bonavista Burgeo Cape Race Corner Brook Daniel's Harbour Englee Ferolle Point La Scie Port aux Basques Rocky Harbour Sagona Island St. Anthony Airport St. John's Int'l Airport St. Lawrence Stephenville Airport Twillingate Winterland Wreckhouse Cartwright Airport Mary's Harbour Grates Cove Pool's Island Marticot Island Long Pond Îles de la Madeleine Airport
Legend: buoyBuoy land stationLand Station